sat.trackr.live / text

‹ back to catalog

STARLINK-1168

NORAD 45072 · 2020-006AE

PAYLOAD ACTIVE UNKNOWN

§ Identity

Operator
Country
US
Launch date
2020-01-29
Launch site
AFETR
Launch vehicle
Mass (kg)
RCS (m²)

Purposes: comms

External: N2YO · Heavens-Above · Gunter

§ Orbital elements

Epoch: 2026-05-24T17:56:58.946208Z

Period
93.88 min
Inclination
53.1574°
Eccentricity
0.0002568
Mean motion
15.33809755 rev/d
Perigee alt
462.7 km
Apogee alt
466.2 km
Semi-major
6,842.6 km
B*
7.7268e-4
RAAN
264.1217°
Arg perigee
322.7620°
Mean anomaly
37.3204°
Rev number
34,852

§ Raw data

STARLINK-11681 45072U 20006AE  26144.74790447  .00025336  00000+0  77268-3 0  99962 45072  53.1574 264.1217 0002568 322.7620  37.3204 15.33809755348528

JSON: /api/v1/satellites/45072 · /tle

For live sub-satellite position, see the globe view (requires WebGL).

§ Visibility from observer

Set your observer location to see the next 7 days of passes ≥ 10°. The values pass through the URL so the page stays shareable.

No JS? Fill the form by hand. The geolocation button needs JavaScript.